Regional Weather Roundup
Issued by NWS Charleston, SC

Current Version | Previous Version | Graphics & Text | Print | Product List | Glossary On
Versions: 1 2 3 4 5 6 7 8 9 10 11 12 13 14 15 16 17 18 19 20 21 22 23 24 25 26 27 28 29 30 31 32 33 34 35 36 37 38 39 40 41 42 43 44 45 46 47 48 49 50
000
ASUS42 KCHS 240327
RWRCHS

Regional Weather Roundup
National Weather Service Charleston SC
1000 PM EST FRI FEB 23 2018

NOTE: "fair" indicates few or no clouds below 12,000 feet with no
significant weather and/or obstructions to visibility.

Not all stations are quality controlled. Use data with caution,
especially dewpoint observations.

SCZ027-030-031-034>040-042>050-240400-
...Southeast South Carolina...

CITY           SKY/WX    TMP DP  RH WIND       PRES   REMARKS
N Charleston   FAIR      66  64  93 SW3       30.32F
Waterfront Prk   N/A     65  64  97 CALM      30.18F
Mount Pleasant FAIR      63  63 100 CALM      30.33S
Johns Island   FAIR      64  64 100 CALM      30.33S FOG
Pinopolis        N/A     64  63  94 VRB2      30.24F
Moncks Corner  FAIR      61  61 100 CALM      30.33S
Summerville    FAIR      63  63 100 CALM      30.34S
Beaufort MCAS  FAIR      65  64  97 SE3       30.32F
Beaufort Arpt  FAIR      63  61  94 CALM      30.32F
Hilton Head Is FAIR      64  63  94 CALM      30.33S
Walterboro     FAIR      63  63 100 CALM      30.33F
Allendale      FAIR      66  63  88 S5        30.31S

...Southern Midlands and Pee Dee...

CITY           SKY/WX    TMP DP  RH WIND       PRES   REMARKS
Georgetown     FAIR      63  63 100 CALM      30.34F
Kingstree      FAIR      63  61  94 SE3       30.32F
Orangeburg     FAIR      66  61  84 S6        30.32S
Barnwell         N/A     68  64  88 CALM      30.32S
Aiken          FAIR      61  59  94 S6        30.35S
Manning        FAIR      63  54  72 MISG      30.33S
Columbia       FAIR      64  59  83 CALM      30.30S
Sumter         FAIR      67  60  78 S9        30.30R
Florence       FAIR      65  62  90 S6        30.32S
Myrtle Beach   MOCLDY    66  63  90 SW8       30.34F
N Myrtle Beach FAIR      64  62  93 S5        30.33F

$$

GAZ063-065-086>088-099>101-113>116-118-119-134>141-150-240400-
...Southeast Georgia...

CITY           SKY/WX    TMP DP  RH WIND       PRES   REMARKS
Savannah Arpt  FAIR      65  63  93 S3        30.32F
Hunter AAF     FAIR      65  62  89 SE3       30.30S
Fort Stewart   FAIR      64  63  95 CALM      30.30S
Statesboro     FAIR      67  61  83 CALM      30.32S
Sylvania       FAIR      65  64  94 CALM      30.33S
Claxton        FAIR      64  64  97 CALM      30.32S

...CSRA, Central and far Southeast Georgia...

CITY           SKY/WX    TMP DP  RH WIND       PRES   REMARKS
Thomson        FAIR      58  56  92 CALM      30.34F
Augusta-Bush   FAIR      61  57  87 CALM      30.30R
Augusta-Daniel FAIR      70  58  65 SE6       30.31S
Swainsboro     FAIR      70  63  78 S6        30.32R
Vidalia        FAIR      68  64  88 CALM      30.31S
Eastman        FAIR      68  56  64 SE5       30.32R
Hazlehurst     FAIR      70  60  72 SE6       30.29S
Alma           FAIR      69  62  78 SE5       30.30S
Waycross       FAIR      68  65  90 SE5       30.30S
Jesup          FAIR      66  61  82 CALM      30.32S
Baxley         FAIR      64  64 100 SE3       30.30S
Brunswick      FOG       59  55  88 CALM      30.32S VSB 1
Saint Simons   FAIR      66  64  93 SE3       30.31F

$$

SCZ027-028-034-036>038-045-046-048>050-GAZ119-141-240400-
...Lake and Supplemental Coastal Observations...

STATION/POSITION TIME  TEMP    WIND        PRES    WAVE   SWELL
                       AIR SEA DIR/SP/G            HT/PER HT/PER/DIR
                 (UTC) (F)     (DEG/KT/KT) (MB)    (FT/S) (FT/S/D)
Winyah Bay       0245   66     220/  3     1027.0F
Lake Murray      0250   65     100/  3/  4 1025.4S
ACE Basin NERRS  0245   63        CALM     1027.0S
Fort Pulaski     0300   65 63  180/  2/  4 1027.1
Sapelo Island    0300   65     110/  4     1026.0

$$

ANZ835-935-AMZ111-154-330-350-352-354-370-450-454-472-240400-
...C-MAN and Buoy Observations...

STATION/POSITION TIME  TEMP    WIND        PRES    WAVE   SWELL
                       AIR SEA DIR/SP/G            HT/PER HT/PER/DIR
                 (UTC) (F)     (DEG/KT/KT) (MB)    (FT/S) (FT/S/D)
Buoy 41004       0310   69     120/  8/ 10 1027.5
Buoy 41008       0250   63 60  140/  6/  8 1026.4F   4/ 9   3/120/ 9
Folly Beach CMAN 0300   65     160/  6/  7 1027.4F
Capers Nearshore 0208   61 64  140/  4/  8 1027.0F
Fripp Nearshore  0308   60 62   60/  4/  8 1026.1R


STATION/POSITION TIME  TEMP    WIND        PRES    WAVE   SWELL
                       AIR SEA DIR/SP/G            HT/PER HT/PER/DIR
                 (UTC) (F)     (DEG/KT/KT) (MB)    (FT/S) (FT/S/D)
5E St. Marys GA  0300      64                N/A     3/ 9   2/110/11
Frying Pan Buoy  0310   71     190/  4/  6 1027.4
Buoy 41025       0310   71     200/ 12/ 16 1027.5
Cape Lookout NC  0300          180/  5/  6 1027.6F
Buoy 41002       0250   72 73  150/  8/ 10 1028.6F   5/ 9   5/100/ 9
Buoy 41010       NOT AVBL
St Augustine FL  0300   69 69  120/  7/  8 1026.4F


$$



USA.gov is the U.S. government's official web portal to all federal, state and local government web resources and services.